Regional Weather Roundup
Issued by NWS

Home | Current Version | Previous Version | Text Only | Print | Product List | Glossary On
Versions: 1 2 3 4 5 6 7 8 9 10 11 12 13 14 15 16 17 18 19 20 21 22 23 24 25 26 27
000
ASUS45 KSLC 240410
RWRUT

UTAH REGIONAL WEATHER ROUNDUP
NATIONAL WEATHER SERVICE SALT LAKE CITY UT
1000 PM MDT WED APR 23 2014

UTZ001>011-023>025-240500-

NORTHERN UTAH

CITY           SKY/WX    TMP DP  RH WIND       PRES   REMARKS
HILL AFB       CLEAR     42  21  43 E7        30.07R
LOGAN          PTCLDY    38  28  67 E6        30.06R WCI  33
OGDEN          CLEAR     45  24  43 S5        30.06R
PROVO AIRPORT  CLEAR     39  16  38 CALM      30.09S
SALT LAKE CITY PTCLDY    44  23  43 E8        30.07R
VERNAL         CLEAR     43  10  26 VRB3      30.04R
WENDOVER       CLOUDY    52  16  24 SW3       30.05R
HEBER CITY     CLEAR     34  18  51 CALM      30.09R
WEST JORDAN    CLEAR     41  25  52 SW9       30.08R

$$

UTZ012>022-026-027-240500-

SOUTHERN UTAH

CITY           SKY/WX    TMP DP  RH WIND       PRES   REMARKS
BRYCE CANYON   CLEAR     32   9  38 N6        30.10R WCI  26
CEDAR CITY     CLEAR     41  12  30 NE7       30.03R
MILFORD        CLEAR     42   8  24 NW12      30.04R
MOAB/CYNLANDS  CLEAR     47   7  19 NW9       30.00R
PRICE          CLEAR     38   7  27 NE5       30.07R WCI  34
ST GEORGE      CLEAR     64  16  15 NE9       29.96R

$$

REGIONAL REPORTS     COLORADO/ARIZONA

CITY           SKY/WX    TMP DP  RH WIND       PRES   REMARKS
CRAIG, CO      CLEAR     32  15  49 W7        30.04R WCI  26
GRAND JUNCTION CLEAR     41  10  28 NW8       29.98R
RIFLE          PTCLDY    46  13  26 NW8       30.00R
MONTROSE       CLEAR     46  10  23 W5        30.01R
CORTEZ         CLEAR     41  14  33 N7        30.03R
PAGE, AZ       CLEAR     60   8  12 W7        29.97R
GRAND CANYON   CLEAR     32   9  38 CALM      30.07R
KINGMAN        PTCLDY    56   6  13 NE7       29.96R
FLAGSTAFF      CLEAR     39  11  31 SW5       30.08R

$$

REGIONAL REPORTS    NEVADA/IDAHO/WYOMING

CITY           SKY/WX    TMP DP  RH WIND       PRES   REMARKS
LAS VEGAS, NV  MOCLDY    72  14  11 SE7       29.88R
ELY            CLEAR     33  12  41 S7        30.06R WCI  27
ELKO           MOCLDY    42  26  53 N5        30.04R
POCATELLO, ID  CLEAR     41  27  57 S10       30.03R
BURLEY         CLOUDY    41  30  65 CALM      30.01R
EVANSTON, WY   PTCLDY    30  16  56 SW10      30.08R WCI  21
ROCK SPRINGS   CLEAR     34  12  40 W14       30.05R WCI  25

$$



USA.gov is the U.S. government's official web portal to all federal, state and local government web resources and services.